Showing default

CHEOPS, 44874

Orbit data source: Space-Track

CHEOPS, 44874 is a payload satellite owned by ESA (ESA) in SSO that was launched on Wed, 18 Dec 2019 UTC via a SOYUZ-ST-A launch vehicle from the French Guiana (FRGUI). Payload-class satellites include a variety of spacecraft equipped with specific instruments for various scientific and technological missions. These include communications satellites like Starlink; space stations such as the ISS; scientific satellites like the Hubble; Earth observation satellites from companies like Planet Labs, Umbra, and HawkEye 360; GPS; miniature CubeSats for education and research; and military/defense satellites.

Loading next visibility...
Identifier
44874, 2019-092B
Orbit
SSO
Country
Flag of ESAESA
Related business
Manufacturer
Airbus Barajas
Mission
Operational Civil Astronomy
Bus & Motor
SEOSAT, AOCS
Mass
273 kg wet, 273 kg dry
Launch date (UTC)
2019-12-18 (6 years ago)
Launch vehicle
SOYUZ-ST-A
Launch site
French Guiana (FRGUI)
Object type
Payload
Rocket body
Debris
Shape & HBR
Hex Cyl + 1 Pan, Unknown HBR
Radar Cross Section
2.624 m², Large (>1 m²)

Expand to show TLE details & history
Last TLE update: 13 hours ago

TLE from 13 hours ago
0 CHEOPS
1 44874U 19092B   25242.79438425  .00000618  00000-0  13364-3 0  9990
2 44874  98.1535  70.1258 0009416 292.4612  67.5592 14.61631875303472
Epoch: 2025-08-30T19:03Z
TLE epoch observation values (Epoch: 2025-08-30T19:03:54.799Z)
Latitude
0.00003°
Longitude
164.9239°
Altitude
688.364 km
Speed
7.514 km/s
True Right ascension
04h 40m 30s
True Declination
0° 00' 00"
Sunlit
Object was in daylight at epoch
Visualization orbit readout
Latitude
Unknown
Longitude
Unknown
Altitude
Unknown
Speed
Unknown
Apparent Right ascension
Unknown
Apparent Declination
Unknown
Sunlit
N/A
Visualization observer readout
Local Sidereal Time
00:10:31
Azimuth
Unknown
Elevation
Unknown
Doppler factor
Unknown
Orbital elements
Apogee altitude
691.637 km
Perigee altitude
678.336 km
Semi-major axis
7,063.124 km
Eccentricity
0.00094
Inclination
98.1535°
RAAN
70.1258°
Arg. of periapsis
292.4612°
True anomaly
67.65897°
Mean anomaly
67.5592°
Eccentric anomaly
67.60908°
Mean motion
3.65635 °/min
Orbital period
98.46 mins
BSTAR
0.00013364
Loading maneuver chart data...
Computing Atmospheric mass density...
Loading historical data...
Loading historical data...
Loading historical data...
Loading historical data...
Loading historical data...
Loading historical data...
Loading historical data...

Documentation

Showing up to 5 results
|